Home   Weather   Nottingham   Past weeks
Flag for United Kingdom

Past Weather in Nottingham, England, United Kingdom — Yesterday and Last 2 Weeks

Now
50 °F

Clear.


Feels Like: 47 °F
Forecast: 65 / 44 °F
Wind: 7 mph from Southeast

Location: East Midlands

Current Time: Apr 4, 2020 at 11:15:04 pm

Latest Report: Apr 4, 2020 at 10:50 pm


Visibility: 10 mi

Pressure: 30.07 "Hg

Humidity: 50%

Dew Point: 32 °F

Location of NottinghamLocation

Past Weather in Nottingham — Graph

°F

Nottingham Temperature Yesterday

Maximum temperature yesterday: 52 °F (at 1:50 pm)
Minimum temperature yesterday: 39 °F (at 3:20 am)
Average temperature yesterday: 46 °F

High & Low Weather Summary for the Past Weeks

 TemperatureHumidityPressure
High59 °F (Mar 24, 1:50 pm)100% (Mar 27, 3:50 am)30.77 "Hg (Mar 27, 3:50 am)
Low30 °F (Mar 23, 1:50 am)27% (Mar 25, 2:20 pm)29.89 "Hg (Apr 2, 1:20 pm)
Average43 °F69%30.31 "Hg
* Reported Mar 20 9:20 pm — Apr 4 10:20 pm, Nottingham. Weather by CustomWeather, © 2020

Note: Actual official high and low records may vary slightly from our data, if they occured in-between our weather recording intervals... More about our weather records

Nottingham Weather History for the Previous 24 Hours

Scroll right to see more
 ConditionsComfort  
Time TempWeatherWind HumidityBarometerVisibility
10:20 pm
Sat, Apr 4
48 °FClear.8 mph58%30.07 "Hg10 mi
9:50 pm50 °FClear.9 mph58%30.07 "Hg10 mi
9:20 pm52 °FClear.9 mph54%30.07 "Hg10 mi
8:50 pm52 °FClear.9 mph54%30.04 "Hg10 mi
8:20 pm54 °FClear.8 mph51%30.04 "Hg10 mi
7:20 pm55 °FSunny.9 mph51%30.04 "Hg10 mi
6:50 pm57 °FSunny.12 mph48%30.04 "Hg10 mi
6:20 pm57 °FSunny.13 mph48%30.04 "Hg10 mi
5:50 pm57 °FScattered clouds.15 mph48%30.04 "HgN/A
5:20 pm57 °FPartly sunny.15 mph51%30.04 "HgN/A
4:50 pm57 °FPartly sunny.12 mph55%30.04 "HgN/A
4:20 pm55 °FPartly sunny.10 mph59%30.04 "HgN/A
3:50 pm55 °FScattered clouds.10 mph59%30.07 "HgN/A
3:20 pm55 °FPassing clouds.14 mph59%30.07 "HgN/A
2:50 pm55 °FPassing clouds.9 mph59%30.07 "HgN/A
2:20 pm55 °FPassing clouds.10 mph63%30.09 "HgN/A
1:50 pm50 °FSunny.15 mph71%30.09 "Hg10 mi
12:50 pm52 °FScattered clouds.13 mph67%30.09 "HgN/A
12:20 pm54 °FScattered clouds.14 mph63%30.09 "HgN/A
11:50 am54 °FScattered clouds.14 mph58%30.09 "HgN/A
11:20 am52 °FPassing clouds.13 mph67%30.09 "HgN/A
10:50 am52 °FPassing clouds.14 mph67%30.09 "HgN/A
10:20 am50 °FSunny.15 mph71%30.09 "Hg10 mi
9:50 am50 °FSunny.13 mph71%30.09 "Hg10 mi
9:20 am48 °FPassing clouds.12 mph71%30.09 "HgN/A
8:50 am46 °FScattered clouds.5 mph82%30.09 "HgN/A
8:20 am43 °FPartly sunny.5 mph87%30.09 "HgN/A
7:50 am41 °FScattered clouds.5 mph87%30.09 "HgN/A
7:20 am39 °FScattered clouds.7 mph87%30.07 "HgN/A
6:50 am39 °FPassing clouds.5 mph87%30.07 "HgN/A
6:20 am39 °FClear.7 mph87%30.07 "Hg10 mi
5:50 am39 °FClear.8 mph87%30.07 "Hg10 mi
5:20 am41 °FClear.8 mph81%30.07 "Hg10 mi
4:50 am41 °FClear.6 mph81%30.07 "Hg10 mi
4:20 am41 °FClear.6 mph81%30.07 "Hg10 mi
3:50 am41 °FClear.8 mph81%30.07 "Hg10 mi
3:20 am41 °FClear.8 mph81%30.09 "Hg10 mi
2:50 am43 °FClear.7 mph76%30.09 "Hg10 mi
2:20 am43 °FClear.6 mph71%30.07 "Hg10 mi
1:50 am43 °FClear.8 mph76%30.07 "Hg10 mi
1:20 am43 °FClear.8 mph71%30.07 "Hg10 mi
12:50 am43 °FClear.10 mph71%30.07 "Hg10 mi
12:20 am43 °FClear.12 mph71%30.07 "Hg10 mi
11:50 pm
Fri, Apr 3
45 °FClear.8 mph66%30.07 "Hg10 mi
11:20 pm45 °FClear.9 mph66%30.07 "Hg10 mi
Weather by CustomWeather, © 2020

See weather overview

Advertising